Location: Noordwijk
(52.2400°N, 4.4500°E)
Time: 21:08:48
(UTC+00:00)

AO-7 - Pass Details

Date: 13 December 2022
Orbit: 1440 x 1459 km, 101.9° (Epoch: 31 January)

Event Time Altitude Azimuth Distance (km) Brightness Sun altitude
Rises 17:20:34 0° 220° (SW) 4,526 ? -15.8°
Reaches altitude 10° 17:24:49 10° 240° (WSW) 3,552 ? -16.4°
Maximum altitude 17:29:37 16° 276° (W) 3,082 ? -17.1°
Drops below altitude 10° 17:34:27 10° 313° (NW) 3,563 ? -17.8°
Sets 17:38:46 0° 334° (NNW) 4,547 ? -18.5°
